KE7YUP Weather Reports


time (UTC)temp
F
wind
direction
speed
knots
gust
knots
rain 1hr
in
rain 24hr
in
rain mn
in
humidity
%
barometer
mb
20260503021815 65 359 6.1 9.6 0.00 0.00 0.00 23 1018.5
20260503020815 66 327 3.5 4.3 0.00 0.00 0.00 23 1018.7
20260503015815 66 348 6.1 12.2 0.00 0.00 0.00 23 1018.0
20260503014836 67 26 3.5 8.7 0.00 0.00 0.00 21 1018.1
20260503013816 68 65 1.7 2.6 0.00 0.00 0.00 17 1018.3
20260503012836 68 120 1.7 4.3 0.00 0.00 0.00 15 1017.6
20260503011815 69 152 2.6 4.3 0.00 0.00 0.00 16 1017.9
20260503010835 69 133 2.6 6.1 0.00 0.00 0.00 15 1017.9
20260503005835 69 103 4.3 7.0 0.00 0.00 0.00 15 1017.7
20260503004815 70 112 3.5 6.1 0.00 0.00 0.00 16 1018.0
20260503003815 70 110 6.1 8.7 0.00 0.00 0.00 15 1018.1
20260503002815 70 127 4.3 9.6 0.00 0.00 0.00 16 1018.1
20260503001815 70 128 3.5 6.1 0.00 0.00 0.00 16 1018.2
20260503000835 70 95 5.2 7.8 0.00 0.00 0.00 16 1018.2
20260502235815 70 140 5.2 8.7 0.00 0.00 0.00 16 1018.3
20260502234815 70 154 6.1 8.7 0.00 0.00 0.00 16 1018.5
20260502233815 70 137 7.8 12.2 0.00 0.00 0.00 16 1018.5
20260502232815 70 142 6.1 12.2 0.00 0.00 0.00 17 1018.5
20260502231815 70 143 5.2 13.9 0.00 0.00 0.00 16 1018.7
20260502230815 70 142 6.1 8.7 0.00 0.00 0.00 16 1018.8
20260502225815 70 85 7.8 10.4 0.00 0.00 0.00 16 1019.3
20260502224815 70 87 7.0 11.3 0.00 0.00 0.00 17 1019.6
20260502223835 70 85 5.2 9.6 0.00 0.00 0.00 18 1019.8
20260502222815 70 149 6.1 8.7 0.00 0.00 0.00 17 1020.5
20260502221815 70 98 4.3 8.7 0.00 0.00 0.00 17 1020.5
20260502220815 70 136 4.3 7.0 0.00 0.00 0.00 18 1020.7
20260502215815 70 103 5.2 11.3 0.00 0.00 0.00 18 1020.5
20260502214835 70 77 7.0 9.6 0.00 0.00 0.00 17 1020.7
20260502213815 69 105 4.3 7.0 0.00 0.00 0.00 17 1021.0
20260502212858 69 153 7.8 13.0 0.00 0.00 0.00 17 1021.2
20260502211817 69 127 3.5 7.8 0.00 0.00 0.00 16 1021.4
20260502210817 68 91 6.1 8.7 0.00 0.00 0.00 17 1021.3
20260502205817 69 70 7.0 10.4 0.00 0.00 0.00 17 1021.8
20260502204817 69 120 2.6 8.7 0.00 0.00 0.00 16 1022.2
20260502203817 68 92 6.1 9.6 0.00 0.00 0.00 17 1022.1
20260502202817 68 161 7.8 10.4 0.00 0.00 0.00 17 1022.6
20260502201817 68 109 1.7 7.8 0.00 0.00 0.00 17 1022.4
20260502200817 68 69 1.7 6.1 0.00 0.00 0.00 18 1023.0
20260502195816 67 100 4.3 7.8 0.00 0.00 0.00 20 1023.1
20260502194817 67 202 2.6 7.0 0.00 0.00 0.00 19 1023.3
20260502193816 66 165 0.9 2.6 0.00 0.00 0.00 21 1023.1
20260502192817 66 103 4.3 7.8 0.00 0.00 0.00 20 1023.1
20260502191817 65 86 6.1 9.6 0.00 0.00 0.00 21 1023.3
20260502190817 66 92 7.8 9.6 0.00 0.00 0.00 22 1023.4
20260502185816 67 141 4.3 9.6 0.00 0.00 0.00 21 1023.5
20260502184816 66 105 2.6 8.7 0.00 0.00 0.00 21 1023.7
20260502183816 65 100 2.6 7.8 0.00 0.00 0.00 21 1023.4
20260502182817 65 132 3.5 8.7 0.00 0.00 0.00 25 1024.5
20260502181816 64 122 2.6 7.0 0.00 0.00 0.00 29 1024.6
20260502180816 63 101 3.5 7.8 0.00 0.00 0.00 31 1024.4
20260502163816 59 86 0.9 3.5 0.00 0.00 0.00 38 1024.9
20260502162837 59 105 0.0 3.5 0.00 0.00 0.00 37 1025.0
20260502161816 57 138 0.0 1.7 0.00 0.00 0.00 43 1024.7
20260502160816 56 104 1.7 2.6 0.00 0.00 0.00 45 1024.7
20260502151816 55 115 1.7 3.5 0.00 0.00 0.00 48 1024.6
20260502150816 55 106 1.7 3.5 0.00 0.00 0.00 44 1024.3
20260502123816 44 329 3.5 4.3 0.00 0.00 0.00 56 1022.7
20260502122816 44 329 3.5 4.3 0.00 0.00 0.00 54 1022.7
20260502121816 45 329 0.0 1.7 0.00 0.00 0.00 54 1023.0
20260502120816 45 329 2.6 3.5 0.00 0.00 0.00 53 1022.9
20260502115816 44 329 2.6 3.5 0.00 0.00 0.00 51 1022.6
20260502114816 44 329 2.6 3.5 0.00 0.00 0.00 50 1022.6
20260502113815 44 329 2.6 4.3 0.00 0.00 0.00 51 1022.6
20260502112816 45 329 4.3 5.2 0.00 0.00 0.00 49 1022.9
20260502111816 45 349 3.5 4.3 0.00 0.00 0.00 49 1022.8
20260502110815 45 349 3.5 4.3 0.00 0.00 0.00 50 1022.9
20260502105815 45 349 3.5 4.3 0.00 0.00 0.00 50 1023.0
20260502104816 45 349 3.5 4.3 0.00 0.00 0.00 49 1022.9
20260502103836 45 349 3.5 4.3 0.00 0.00 0.00 50 1022.6
20260502102815 46 316 2.6 3.5 0.00 0.00 0.00 46 1022.9
20260502101815 48 316 1.7 2.6 0.00 0.00 0.00 44 1023.2
20260502100815 49 316 0.0 0.9 0.00 0.00 0.00 42 1023.5
20260502090815 47 309 1.7 3.5 0.00 0.00 0.00 45 1022.8
20260502070816 51 34 1.7 2.6 0.00 0.00 0.00 39 1023.1
20260502065835 51 0.0 0.9 0.00 0.00 0.00 39 1022.8
20260502064815 51 247 3.5 6.1 0.00 0.00 0.00 40 1022.8
20260502063815 50 343 3.5 4.3 0.00 0.00 0.00 40 1022.5
20260502062836 50 350 0.9 2.6 0.00 0.00 0.00 41 1022.3
20260502061815 51 355 3.5 4.3 0.00 0.00 0.00 39 1022.6
20260502060815 52 153 0.9 0.9 0.00 0.00 0.00 37 1022.5
20260502055816 54 346 1.7 2.6 0.00 0.00 0.00 35 1022.6
20260502054816 54 277 2.6 3.5 0.00 0.00 0.00 34 1022.6
20260502053836 56 253 4.3 7.0 0.00 0.00 0.00 31 1022.8
20260502052816 57 186 2.6 7.8 0.00 0.00 0.00 30 1022.9
20260502051816 58 9 3.5 11.3 0.00 0.00 0.00 29 1022.8
20260502050816 57 359 5.2 12.2 0.00 0.00 0.00 29 1022.8
20260502045816 57 17 3.5 7.0 0.00 0.00 0.00 30 1022.4
20260502044816 58 349 6.1 13.0 0.00 0.00 0.00 30 1022.7
20260502043856 58 10 7.8 17.4 0.00 0.00 0.00 30 1022.8
20260502042816 58 360 8.7 15.6 0.00 0.00 0.00 30 1022.4
20260502041816 58 7 7.0 14.8 0.00 0.00 0.00 30 1022.3
20260502040816 58 337 5.2 13.0 0.00 0.00 0.00 31 1022.2
20260502035816 58 26 7.8 15.6 0.00 0.00 0.00 31 1022.0
20260502034816 58 22 8.7 18.2 0.00 0.00 0.00 31 1022.1
20260502033836 58 3 10.4 16.5 0.00 0.00 0.00 30 1021.9
20260502032816 58 328 12.2 20.9 0.00 0.00 0.00 31 1021.5
20260502031816 58 317 10.4 18.2 0.00 0.00 0.00 31 1021.3
20260502030816 58 310 7.0 15.6 0.00 0.00 0.00 31 1021.2
20260502025816 58 278 4.3 7.8 0.00 0.00 0.00 31 1020.8
20260502024816 58 347 9.6 18.2 0.00 0.00 0.00 31 1020.6
20260502023816 58 7 4.3 13.9 0.00 0.00 0.00 31 1020.7
20260502022817 58 33 6.1 15.6 0.00 0.00 0.00 31 1020.7